Time,TemperatureF,DewpointF,PressureIn,WindDirection,WindDirectionDegrees,WindSpeedMPH,WindSpeedGustMPH,Humidity,HourlyPrecipIn,Conditions,Clouds,dailyrainin,SoftwareType,DateUTC
2013-05-04 00:04:00,64.0,41.1,28.91,SSW,213,0.0,4.0,43,0.00,,SKC,0.00,VWS V14.00,2013-05-04 04:04:00,
2013-05-04 00:09:00,64.2,41.3,28.91,NNE,20,0.0,4.0,43,0.00,,SKC,0.00,VWS V14.00,2013-05-04 04:09:00,
2013-05-04 00:14:00,64.4,40.8,28.91,WSW,240,0.0,5.8,42,0.00,,SKC,0.00,VWS V14.00,2013-05-04 04:14:00,
2013-05-04 00:19:00,64.6,41.0,28.91,SE,129,0.0,5.8,42,0.00,,SKC,0.00,VWS V14.00,2013-05-04 04:19:00,
2013-05-04 00:24:00,64.4,40.8,28.91,South,187,2.7,2.7,42,0.00,,SKC,0.00,VWS V14.00,2013-05-04 04:24:00,
2013-05-04 00:29:00,64.2,40.7,28.91,SW,216,0.0,4.0,42,0.00,,SKC,0.00,VWS V14.00,2013-05-04 04:29:00,
2013-05-04 00:34:00,64.2,40.7,28.91,SW,216,0.0,0.0,42,0.00,,SKC,0.00,VWS V14.00,2013-05-04 04:34:00,
2013-05-04 00:39:00,64.0,40.5,28.91,SW,216,0.0,0.0,42,0.00,,SKC,0.00,VWS V14.00,2013-05-04 04:39:00,
2013-05-04 00:45:00,64.0,41.1,28.91,SW,216,0.0,0.0,43,0.00,,SKC,0.00,VWS V14.00,2013-05-04 04:45:00,
2013-05-04 00:50:00,63.9,41.0,28.91,SW,216,0.0,0.0,43,0.00,,SKC,0.00,VWS V14.00,2013-05-04 04:50:00,
2013-05-04 00:55:00,63.9,41.0,28.91,SW,216,0.0,0.0,43,0.00,,SKC,0.00,VWS V14.00,2013-05-04 04:55:00,
2013-05-04 01:00:00,63.7,40.8,28.91,SW,216,0.0,0.0,43,0.00,,SKC,0.00,VWS V14.00,2013-05-04 05:00:00,
2013-05-04 01:05:00,63.7,40.8,28.91,SW,216,0.0,0.0,43,0.00,,SKC,0.00,VWS V14.00,2013-05-04 05:05:00,
2013-05-04 01:10:00,63.7,40.8,28.91,SW,216,0.0,0.0,43,0.00,,SKC,0.00,VWS V14.00,2013-05-04 05:10:00,
2013-05-04 01:15:00,63.7,40.8,28.91,NE,34,0.0,4.0,43,0.00,,SKC,0.00,VWS V14.00,2013-05-04 05:15:00,
2013-05-04 01:20:00,63.9,41.0,28.91,North,11,0.0,4.0,43,0.00,,SKC,0.00,VWS V14.00,2013-05-04 05:20:00,
2013-05-04 01:25:00,64.0,41.1,28.91,NNE,28,3.8,3.8,43,0.00,,SKC,0.00,VWS V14.00,2013-05-04 05:25:00,
2013-05-04 01:30:00,64.0,41.1,28.91,NNE,31,0.0,3.1,43,0.00,,SKC,0.00,VWS V14.00,2013-05-04 05:30:00,
2013-05-04 01:35:00,64.0,41.1,28.91,SSW,213,0.0,2.7,43,0.00,,SKC,0.00,VWS V14.00,2013-05-04 05:35:00,
2013-05-04 01:40:00,63.9,41.0,28.91,NE,39,0.0,2.7,43,0.00,,SKC,0.00,VWS V14.00,2013-05-04 05:40:00,
2013-05-04 01:45:00,64.0,41.1,28.91,NNE,29,0.0,4.0,43,0.00,,SKC,0.00,VWS V14.00,2013-05-04 05:45:00,
2013-05-04 01:50:00,64.0,41.1,28.91,SSE,150,0.0,4.0,43,0.00,,SKC,0.00,VWS V14.00,2013-05-04 05:50:00,
2013-05-04 01:55:00,63.9,41.0,28.91,NE,54,0.0,2.2,43,0.00,,SKC,0.00,VWS V14.00,2013-05-04 05:55:00,
2013-05-04 02:00:00,63.7,40.8,28.91,NE,54,0.0,2.2,43,0.00,,SKC,0.00,VWS V14.00,2013-05-04 06:00:00,
2013-05-04 02:05:00,63.5,41.2,28.88,NE,55,0.0,0.0,44,0.00,,SKC,0.00,VWS V14.00,2013-05-04 06:05:00,
2013-05-04 02:10:00,63.3,41.1,28.88,NE,54,0.0,0.0,44,0.00,,SKC,0.00,VWS V14.00,2013-05-04 06:10:00,
2013-05-04 02:15:00,63.0,40.7,28.88,NE,54,0.0,0.0,44,0.00,,SKC,0.00,VWS V14.00,2013-05-04 06:15:00,
2013-05-04 02:20:00,63.0,41.3,28.88,NE,54,0.0,0.0,45,0.00,,SKC,0.00,VWS V14.00,2013-05-04 06:20:00,
2013-05-04 02:25:00,62.8,40.6,28.88,NE,54,0.0,0.0,44,0.00,,SKC,0.00,VWS V14.00,2013-05-04 06:25:00,
2013-05-04 02:30:00,62.8,41.2,28.88,NE,37,0.0,2.7,45,0.00,,SKC,0.00,VWS V14.00,2013-05-04 06:30:00,
2013-05-04 02:35:00,62.6,41.0,28.88,NE,37,0.0,0.0,45,0.00,,SKC,0.00,VWS V14.00,2013-05-04 06:35:00,
2013-05-04 02:40:00,62.6,41.0,28.88,NE,37,0.0,0.0,45,0.00,,SKC,0.00,VWS V14.00,2013-05-04 06:40:00,
2013-05-04 02:45:00,62.4,41.4,28.88,NE,37,0.0,0.0,46,0.00,,SKC,0.00,VWS V14.00,2013-05-04 06:45:00,
2013-05-04 02:50:00,62.2,41.2,28.88,NE,37,0.0,0.0,46,0.00,,SKC,0.00,VWS V14.00,2013-05-04 06:50:00,
2013-05-04 02:55:00,62.2,41.2,28.88,NE,37,0.0,0.0,46,0.00,,SKC,0.00,VWS V14.00,2013-05-04 06:55:00,
2013-05-04 03:00:00,62.1,41.1,28.88,NE,37,0.0,0.0,46,0.00,,SKC,0.00,VWS V14.00,2013-05-04 07:00:00,
2013-05-04 03:05:00,61.7,41.3,28.88,NE,37,0.0,0.0,47,0.00,,SKC,0.00,VWS V14.00,2013-05-04 07:05:00,
2013-05-04 03:10:00,61.5,41.1,28.88,NE,37,0.0,0.0,47,0.00,,SKC,0.00,VWS V14.00,2013-05-04 07:10:00,
2013-05-04 03:15:00,61.3,41.0,28.88,ENE,63,0.0,2.7,47,0.00,,SKC,0.00,VWS V14.00,2013-05-04 07:15:00,
2013-05-04 03:20:00,61.3,41.0,28.88,NNE,23,0.0,2.7,47,0.00,,SKC,0.00,VWS V14.00,2013-05-04 07:20:00,
2013-05-04 03:25:00,61.3,41.0,28.88,NE,36,4.8,4.8,47,0.00,,SKC,0.00,VWS V14.00,2013-05-04 07:25:00,
2013-05-04 03:30:00,61.3,41.0,28.88,NE,48,0.0,4.0,47,0.00,,SKC,0.00,VWS V14.00,2013-05-04 07:30:00,
2013-05-04 03:35:00,61.2,40.8,28.85,NNE,31,0.0,0.0,47,0.00,,SKC,0.00,VWS V14.00,2013-05-04 07:35:00,
2013-05-04 03:40:00,61.0,40.6,28.85,NNE,22,0.0,0.0,47,0.00,,SKC,0.00,VWS V14.00,2013-05-04 07:40:00,
2013-05-04 03:45:00,60.8,40.5,28.85,NE,47,0.0,0.0,47,0.00,,SKC,0.00,VWS V14.00,2013-05-04 07:45:00,
2013-05-04 03:50:00,60.6,40.8,28.85,NNE,32,0.0,4.0,48,0.00,,SKC,0.00,VWS V14.00,2013-05-04 07:50:00,
2013-05-04 03:55:00,60.6,40.8,28.85,NNE,30,0.0,3.6,48,0.00,,SKC,0.00,VWS V14.00,2013-05-04 07:55:00,
2013-05-04 04:00:00,60.6,40.8,28.85,NNE,29,0.0,3.6,48,0.00,,SKC,0.00,VWS V14.00,2013-05-04 08:00:00,
2013-05-04 04:05:00,60.6,40.8,28.85,NE,49,0.0,0.0,48,0.00,,SKC,0.00,VWS V14.00,2013-05-04 08:05:00,
2013-05-04 04:10:00,60.6,41.4,28.85,NNE,33,3.2,3.6,49,0.00,,SKC,0.00,VWS V14.00,2013-05-04 08:10:00,
2013-05-04 04:15:00,60.4,41.2,28.85,NNE,31,0.0,2.2,49,0.00,,SKC,0.00,VWS V14.00,2013-05-04 08:15:00,
2013-05-04 04:20:00,60.4,41.2,28.85,NNE,31,0.0,2.2,49,0.00,,SKC,0.00,VWS V14.00,2013-05-04 08:20:00,
2013-05-04 04:25:00,60.4,41.2,28.85,NNE,31,0.0,0.0,49,0.00,,SKC,0.00,VWS V14.00,2013-05-04 08:25:00,
2013-05-04 04:30:00,60.4,41.2,28.85,NNE,31,0.0,0.0,49,0.00,,SKC,0.00,VWS V14.00,2013-05-04 08:30:00,
2013-05-04 04:35:00,60.3,41.6,28.85,NNE,32,0.0,3.1,50,0.00,,SKC,0.00,VWS V14.00,2013-05-04 08:35:00,
2013-05-04 04:40:00,60.3,41.6,28.85,NNE,32,0.0,3.1,50,0.00,,SKC,0.00,VWS V14.00,2013-05-04 08:40:00,
2013-05-04 04:45:00,60.3,41.6,28.85,North,11,3.2,3.2,50,0.00,,SKC,0.00,VWS V14.00,2013-05-04 08:45:00,
2013-05-04 04:50:00,60.3,41.6,28.85,NNE,33,0.0,5.4,50,0.00,,SKC,0.00,VWS V14.00,2013-05-04 08:50:00,
2013-05-04 04:55:00,60.3,41.6,28.85,NNE,20,0.0,3.6,50,0.00,,SKC,0.00,VWS V14.00,2013-05-04 08:55:00,
2013-05-04 05:00:00,60.3,41.6,28.85,NE,41,0.0,4.0,50,0.00,,SKC,0.00,VWS V14.00,2013-05-04 09:00:00,
2013-05-04 05:05:00,60.3,41.0,28.85,NE,41,0.0,0.0,49,0.00,,SKC,0.00,VWS V14.00,2013-05-04 09:05:00,
2013-05-04 05:10:00,60.3,41.0,28.85,NE,41,0.0,0.0,49,0.00,,SKC,0.00,VWS V14.00,2013-05-04 09:10:00,
2013-05-04 05:15:00,60.1,40.9,28.85,NE,39,0.0,0.0,49,0.00,,SKC,0.00,VWS V14.00,2013-05-04 09:15:00,
2013-05-04 05:20:00,60.1,41.4,28.88,NE,38,0.0,0.0,50,0.00,,SKC,0.00,VWS V14.00,2013-05-04 09:20:00,
2013-05-04 05:25:00,60.1,40.9,28.88,NE,39,0.0,0.0,49,0.00,,SKC,0.00,VWS V14.00,2013-05-04 09:25:00,
2013-05-04 05:30:00,60.1,40.9,28.88,NNE,26,0.0,0.0,49,0.00,,SKC,0.00,VWS V14.00,2013-05-04 09:30:00,
2013-05-04 05:35:00,60.1,40.9,28.88,NNE,27,0.0,0.0,49,0.00,,SKC,0.00,VWS V14.00,2013-05-04 09:35:00,
2013-05-04 05:40:00,59.9,40.7,28.88,NNE,27,0.0,0.0,49,0.00,,SKC,0.00,VWS V14.00,2013-05-04 09:40:00,
2013-05-04 05:45:00,59.9,41.2,28.88,NNE,26,0.0,2.2,50,0.00,,SKC,0.00,VWS V14.00,2013-05-04 09:45:00,
2013-05-04 05:50:00,59.7,40.5,28.88,NE,43,0.0,2.2,49,0.00,,SKC,0.00,VWS V14.00,2013-05-04 09:50:00,
2013-05-04 05:55:00,59.7,40.5,28.88,NNE,32,0.0,4.9,49,0.00,,SKC,0.00,VWS V14.00,2013-05-04 09:55:00,
2013-05-04 06:00:00,59.7,40.5,28.88,NE,34,0.0,4.9,49,0.00,,SKC,0.00,VWS V14.00,2013-05-04 10:00:00,
2013-05-04 06:05:00,59.7,40.0,28.88,North,3,2.7,2.7,48,0.00,,SKC,0.00,VWS V14.00,2013-05-04 10:05:00,
2013-05-04 06:10:00,59.7,40.0,28.88,NNE,32,3.2,3.2,48,0.00,,SKC,0.00,VWS V14.00,2013-05-04 10:10:00,
2013-05-04 06:15:00,59.7,40.0,28.88,NNE,23,0.0,4.0,48,0.00,,SKC,0.00,VWS V14.00,2013-05-04 10:15:00,
2013-05-04 06:20:00,59.7,40.0,28.88,NE,35,0.0,0.0,48,0.00,,SKC,0.00,VWS V14.00,2013-05-04 10:20:00,
2013-05-04 06:25:00,59.5,39.3,28.88,NNE,21,3.2,3.2,47,0.00,,SKC,0.00,VWS V14.00,2013-05-04 10:25:00,
2013-05-04 06:31:00,59.5,38.8,28.88,NNE,32,0.0,4.0,46,0.00,,SKC,0.00,VWS V14.00,2013-05-04 10:31:00,
2013-05-04 06:36:00,59.5,38.8,28.88,NNE,27,0.0,4.9,46,0.00,,SKC,0.00,VWS V14.00,2013-05-04 10:36:00,
2013-05-04 06:41:00,59.4,38.6,28.88,NNE,33,0.0,0.0,46,0.00,,SKC,0.00,VWS V14.00,2013-05-04 10:41:00,
2013-05-04 06:46:00,59.4,38.6,28.88,North,10,0.0,0.0,46,0.00,,SKC,0.00,VWS V14.00,2013-05-04 10:46:00,
2013-05-04 06:51:00,59.2,38.4,28.88,NNE,24,0.0,0.0,46,0.00,,SKC,0.00,VWS V14.00,2013-05-04 10:51:00,
2013-05-04 06:56:00,59.0,37.7,28.88,North,353,0.0,4.0,45,0.00,,SKC,0.00,VWS V14.00,2013-05-04 10:56:00,
2013-05-04 07:01:00,59.0,37.7,28.88,NE,39,0.0,0.0,45,0.00,,SKC,0.00,VWS V14.00,2013-05-04 11:01:00,
2013-05-04 07:06:00,59.0,37.7,28.88,NNE,29,3.2,3.2,45,0.00,,SKC,0.00,VWS V14.00,2013-05-04 11:06:00,
2013-05-04 07:11:00,59.0,37.7,28.88,NNE,29,0.0,0.0,45,0.00,,SKC,0.00,VWS V14.00,2013-05-04 11:11:00,
2013-05-04 07:16:00,59.0,37.7,28.88,North,8,0.0,0.0,45,0.00,,SKC,0.00,VWS V14.00,2013-05-04 11:16:00,
2013-05-04 07:21:00,59.0,37.7,28.88,NE,36,0.0,0.0,45,0.00,,SKC,0.00,VWS V14.00,2013-05-04 11:21:00,
2013-05-04 07:26:00,58.8,37.5,28.88,NE,36,0.0,0.0,45,0.00,,SKC,0.00,VWS V14.00,2013-05-04 11:26:00,
2013-05-04 07:31:00,58.8,37.5,28.88,NE,43,0.0,0.0,45,0.00,,SKC,0.00,VWS V14.00,2013-05-04 11:31:00,
2013-05-04 07:36:00,58.8,37.5,28.88,NNE,13,0.0,3.1,45,0.00,,SKC,0.00,VWS V14.00,2013-05-04 11:36:00,
2013-05-04 07:41:00,58.8,37.0,28.88,NNE,15,0.0,0.0,44,0.00,,SKC,0.00,VWS V14.00,2013-05-04 11:41:00,
2013-05-04 07:46:00,59.0,36.6,28.88,NNE,17,3.8,3.8,43,0.00,,SKC,0.00,VWS V14.00,2013-05-04 11:46:00,
2013-05-04 07:56:00,59.2,36.7,28.88,NNE,25,0.0,3.6,43,0.00,,SKC,0.00,VWS V14.00,2013-05-04 11:56:00,
2013-05-04 08:01:00,59.2,36.1,28.88,NNE,28,4.3,4.3,42,0.00,,SKC,0.00,VWS V14.00,2013-05-04 12:01:00,
2013-05-04 08:06:00,59.2,35.5,28.88,NNE,29,0.0,4.9,41,0.00,,SKC,0.00,VWS V14.00,2013-05-04 12:06:00,
2013-05-04 08:16:00,59.0,36.0,28.88,NNE,25,0.0,0.0,42,0.00,,SKC,0.00,VWS V14.00,2013-05-04 12:16:00,
2013-05-04 08:21:00,58.8,35.2,28.88,NNE,21,0.0,2.2,41,0.00,,SKC,0.00,VWS V14.00,2013-05-04 12:21:00,
2013-05-04 08:26:00,58.8,35.8,28.88,NNE,27,0.0,3.1,42,0.00,,SKC,0.00,VWS V14.00,2013-05-04 12:26:00,
2013-05-04 08:31:00,58.6,35.6,28.88,NNE,27,0.0,0.0,42,0.00,,SKC,0.00,VWS V14.00,2013-05-04 12:31:00,
2013-05-04 08:36:00,58.5,35.5,28.88,NE,46,4.3,4.3,42,0.00,,SKC,0.00,VWS V14.00,2013-05-04 12:36:00,
2013-05-04 08:41:00,58.3,35.3,28.88,NNE,25,0.0,0.0,42,0.00,,SKC,0.00,VWS V14.00,2013-05-04 12:41:00,
2013-05-04 08:46:00,58.3,35.3,28.88,NNE,28,0.0,0.0,42,0.00,,SKC,0.00,VWS V14.00,2013-05-04 12:46:00,
2013-05-04 08:51:00,58.3,35.3,28.88,WSW,256,0.0,2.7,42,0.00,,SKC,0.00,VWS V14.00,2013-05-04 12:51:00,
2013-05-04 08:56:00,58.3,35.3,28.88,North,353,0.0,2.7,42,0.00,,SKC,0.00,VWS V14.00,2013-05-04 12:56:00,
2013-05-04 09:01:00,58.3,35.3,28.88,NNE,22,0.0,0.0,42,0.00,,SKC,0.00,VWS V14.00,2013-05-04 13:01:00,
2013-05-04 09:06:00,58.3,35.3,28.88,NNE,31,0.0,0.0,42,0.00,,SKC,0.00,VWS V14.00,2013-05-04 13:06:00,
2013-05-04 09:11:00,58.3,35.3,28.88,NNE,31,0.0,0.0,42,0.00,,SKC,0.00,VWS V14.00,2013-05-04 13:11:00,
2013-05-04 09:16:00,58.3,35.9,28.88,NNE,31,0.0,0.0,43,0.00,,SKC,0.00,VWS V14.00,2013-05-04 13:16:00,
2013-05-04 09:21:00,58.5,36.7,28.88,ESE,107,0.0,2.7,44,0.00,,SKC,0.00,VWS V14.00,2013-05-04 13:21:00,
2013-05-04 09:26:00,58.6,36.8,28.88,NE,38,0.0,2.7,44,0.00,,SKC,0.00,VWS V14.00,2013-05-04 13:26:00,
2013-05-04 09:31:00,58.8,37.5,28.88,NE,38,0.0,0.0,45,0.00,,SKC,0.00,VWS V14.00,2013-05-04 13:31:00,
2013-05-04 09:36:00,59.0,37.1,28.88,NE,38,0.0,0.0,44,0.00,,SKC,0.00,VWS V14.00,2013-05-04 13:36:00,
2013-05-04 09:41:00,59.0,37.1,28.88,NE,38,0.0,0.0,44,0.00,,SKC,0.00,VWS V14.00,2013-05-04 13:41:00,
2013-05-04 09:46:00,59.0,37.1,28.88,NNE,30,0.0,4.9,44,0.00,,SKC,0.00,VWS V14.00,2013-05-04 13:46:00,
2013-05-04 09:51:00,59.2,37.3,28.88,NNE,32,0.0,0.0,44,0.00,,SKC,0.00,VWS V14.00,2013-05-04 13:51:00,
2013-05-04 09:56:00,59.2,37.3,28.88,NNE,25,0.0,3.1,44,0.00,,SKC,0.00,VWS V14.00,2013-05-04 13:56:00,
2013-05-04 10:01:00,59.0,37.7,28.88,NE,43,0.0,0.0,45,0.00,,SKC,0.00,VWS V14.00,2013-05-04 14:01:00,
2013-05-04 10:06:00,58.8,37.5,28.88,NE,37,0.0,3.1,45,0.00,,SKC,0.00,VWS V14.00,2013-05-04 14:06:00,
2013-05-04 10:11:00,58.5,37.8,28.88,NNE,14,0.0,0.0,46,0.00,,SKC,0.00,VWS V14.00,2013-05-04 14:11:00,
2013-05-04 10:16:00,58.1,38.0,28.88,NNW,345,0.0,0.0,47,0.00,,SKC,0.00,VWS V14.00,2013-05-04 14:16:00,
2013-05-04 10:21:00,57.9,38.9,28.88,NNW,345,0.0,0.0,49,0.00,,SKC,0.00,VWS V14.00,2013-05-04 14:21:00,
2013-05-04 10:26:00,57.9,39.4,28.88,NNW,345,0.0,0.0,50,0.00,,SKC,0.00,VWS V14.00,2013-05-04 14:26:00,
2013-05-04 10:32:00,57.9,39.9,28.88,NNW,345,0.0,0.0,51,0.00,,SKC,0.00,VWS V14.00,2013-05-04 14:32:00,
2013-05-04 10:37:00,58.3,41.2,28.88,NNW,345,0.0,0.0,53,0.00,,SKC,0.00,VWS V14.00,2013-05-04 14:37:00,
2013-05-04 10:42:00,58.8,41.7,28.88,North,349,0.0,0.0,53,0.00,,SKC,0.00,VWS V14.00,2013-05-04 14:42:00,
2013-05-04 10:47:00,59.2,42.1,28.88,NNE,20,0.0,0.0,53,0.00,,SKC,0.00,VWS V14.00,2013-05-04 14:47:00,
2013-05-04 10:52:00,59.4,42.7,28.88,NNE,27,0.0,0.0,54,0.00,,SKC,0.00,VWS V14.00,2013-05-04 14:52:00,
2013-05-04 10:57:00,59.2,42.6,28.88,NNE,27,0.0,0.0,54,0.00,,SKC,0.00,VWS V14.00,2013-05-04 14:57:00,
2013-05-04 11:02:00,59.2,43.0,28.88,NNE,27,0.0,0.0,55,0.00,,SKC,0.00,VWS V14.00,2013-05-04 15:02:00,
2013-05-04 11:07:00,59.4,43.7,28.88,NNE,27,0.0,0.0,56,0.00,,SKC,0.00,VWS V14.00,2013-05-04 15:07:00,
2013-05-04 11:12:00,59.5,43.8,28.88,NNE,27,0.0,0.0,56,0.00,,SKC,0.00,VWS V14.00,2013-05-04 15:12:00,
2013-05-04 11:17:00,59.7,44.5,28.88,NNE,27,0.0,0.0,57,0.00,,SKC,0.00,VWS V14.00,2013-05-04 15:17:00,
2013-05-04 11:22:00,59.9,45.1,28.88,NNE,27,0.0,0.0,58,0.00,,SKC,0.00,VWS V14.00,2013-05-04 15:22:00,
2013-05-04 11:27:00,59.9,45.1,28.88,NNE,27,0.0,0.0,58,0.00,,SKC,0.00,VWS V14.00,2013-05-04 15:27:00,
2013-05-04 11:32:00,59.9,45.1,28.88,NNE,29,0.0,0.0,58,0.00,,SKC,0.00,VWS V14.00,2013-05-04 15:32:00,
2013-05-04 11:37:00,59.7,45.4,28.88,NNE,20,0.0,0.0,59,0.00,,SKC,0.00,VWS V14.00,2013-05-04 15:37:00,
2013-05-04 11:42:00,59.5,45.2,28.88,NNE,20,0.0,0.0,59,0.00,,SKC,0.00,VWS V14.00,2013-05-04 15:42:00,
2013-05-04 11:47:00,59.4,45.5,28.88,NE,52,3.2,3.2,60,0.00,,SKC,0.00,VWS V14.00,2013-05-04 15:47:00,
2013-05-04 11:52:00,59.0,45.2,28.85,NNE,18,0.0,0.0,60,0.00,,SKC,0.00,VWS V14.00,2013-05-04 15:52:00,
2013-05-04 11:57:00,59.0,45.2,28.85,NNE,20,0.0,3.6,60,0.00,,SKC,0.00,VWS V14.00,2013-05-04 15:57:00,
2013-05-04 12:02:00,59.0,45.6,28.85,ENE,68,0.0,2.2,61,0.00,,SKC,0.00,VWS V14.00,2013-05-04 16:02:00,
2013-05-04 12:07:00,59.2,45.8,28.85,ENE,68,0.0,2.2,61,0.00,,SKC,0.00,VWS V14.00,2013-05-04 16:07:00,
2013-05-04 12:12:00,59.5,46.5,28.85,East,94,0.0,0.0,62,0.00,,SKC,0.00,VWS V14.00,2013-05-04 16:12:00,
2013-05-04 12:17:00,59.5,46.1,28.85,NNE,32,0.0,2.7,61,0.00,,SKC,0.00,VWS V14.00,2013-05-04 16:17:00,
2013-05-04 12:22:00,59.5,46.1,28.85,NE,39,0.0,0.0,61,0.00,,SKC,0.00,VWS V14.00,2013-05-04 16:22:00,
2013-05-04 12:27:00,59.5,46.1,28.85,North,9,0.0,2.7,61,0.00,,SKC,0.00,VWS V14.00,2013-05-04 16:27:00,
2013-05-04 12:32:00,59.7,46.3,28.85,NE,38,0.0,0.0,61,0.00,,SKC,0.00,VWS V14.00,2013-05-04 16:32:00,
2013-05-04 12:37:00,60.1,47.0,28.88,North,0,4.3,4.3,62,0.00,,SKC,0.00,VWS V14.00,2013-05-04 16:37:00,
2013-05-04 12:42:00,60.3,47.2,28.88,ENE,66,0.0,0.0,62,0.00,,SKC,0.00,VWS V14.00,2013-05-04 16:42:00,
2013-05-04 12:47:00,60.4,47.8,28.88,NNE,18,0.0,0.0,63,0.00,,SKC,0.00,VWS V14.00,2013-05-04 16:47:00,
2013-05-04 12:52:00,60.8,47.7,28.85,NNE,18,0.0,0.0,62,0.00,,SKC,0.00,VWS V14.00,2013-05-04 16:52:00,
2013-05-04 12:57:00,61.2,48.0,28.85,NNE,22,0.0,0.0,62,0.00,,SKC,0.00,VWS V14.00,2013-05-04 16:57:00,
2013-05-04 13:02:00,61.5,48.4,28.85,NNE,21,0.0,0.0,62,0.00,,SKC,0.00,VWS V14.00,2013-05-04 17:02:00,
2013-05-04 13:07:00,61.7,48.6,28.85,NE,42,0.0,0.0,62,0.00,,SKC,0.00,VWS V14.00,2013-05-04 17:07:00,
2013-05-04 13:12:00,61.7,48.6,28.85,NNE,30,0.0,0.0,62,0.00,,SKC,0.00,VWS V14.00,2013-05-04 17:12:00,
2013-05-04 13:17:00,61.7,48.1,28.85,NNE,25,0.0,0.0,61,0.00,,SKC,0.00,VWS V14.00,2013-05-04 17:17:00,
2013-05-04 13:22:00,61.5,48.0,28.85,NNE,20,0.0,0.0,61,0.00,,SKC,0.00,VWS V14.00,2013-05-04 17:22:00,
2013-05-04 13:27:00,61.7,48.1,28.85,NNE,20,0.0,0.0,61,0.00,,SKC,0.00,VWS V14.00,2013-05-04 17:27:00,
2013-05-04 13:32:00,62.1,48.9,28.85,NNE,20,0.0,0.0,62,0.04,,SKC,0.04,VWS V14.00,2013-05-04 17:32:00,
2013-05-04 13:37:00,62.1,48.5,28.88,NNE,26,0.0,3.6,61,0.04,,SKC,0.04,VWS V14.00,2013-05-04 17:37:00,
2013-05-04 13:42:00,62.2,49.1,28.88,NNE,26,0.0,0.0,62,0.04,,SKC,0.04,VWS V14.00,2013-05-04 17:42:00,
2013-05-04 13:47:00,62.1,48.9,28.88,NE,35,0.0,3.1,62,0.04,,SKC,0.04,VWS V14.00,2013-05-04 17:47:00,
2013-05-04 13:52:00,61.9,48.3,28.85,North,357,0.0,0.0,61,0.04,,SKC,0.04,VWS V14.00,2013-05-04 17:52:00,
2013-05-04 13:57:00,61.7,48.1,28.85,NNE,30,0.0,5.8,61,0.04,,SKC,0.04,VWS V14.00,2013-05-04 17:57:00,
2013-05-04 14:02:00,61.7,48.6,28.85,NNE,21,0.0,0.0,62,0.04,,SKC,0.04,VWS V14.00,2013-05-04 18:02:00,
2013-05-04 14:07:00,61.2,47.6,28.85,NNE,31,0.0,3.6,61,0.04,,SKC,0.04,VWS V14.00,2013-05-04 18:07:00,
2013-05-04 14:12:00,60.8,47.3,28.85,North,9,2.7,4.0,61,0.04,,SKC,0.04,VWS V14.00,2013-05-04 18:12:00,
2013-05-04 14:17:00,60.3,46.8,28.85,NNE,28,4.3,4.9,61,0.04,,SKC,0.04,VWS V14.00,2013-05-04 18:17:00,
2013-05-04 14:22:00,60.1,46.6,28.85,NE,46,0.0,3.6,61,0.04,,SKC,0.04,VWS V14.00,2013-05-04 18:22:00,
2013-05-04 14:27:00,59.9,46.9,28.85,North,8,0.0,3.6,62,0.04,,SKC,0.04,VWS V14.00,2013-05-04 18:27:00,
2013-05-04 14:32:00,59.9,46.9,28.85,North,8,0.0,0.0,62,0.04,,SKC,0.04,VWS V14.00,2013-05-04 18:32:00,
2013-05-04 14:37:00,60.1,47.5,28.85,SSW,194,0.0,0.0,63,0.04,,SKC,0.04,VWS V14.00,2013-05-04 18:37:00,
2013-05-04 14:42:00,60.4,48.2,28.85,SSW,194,0.0,0.0,64,0.00,,SKC,0.04,VWS V14.00,2013-05-04 18:42:00,
2013-05-04 14:47:00,60.6,48.8,28.85,SSW,194,0.0,0.0,65,0.00,,SKC,0.04,VWS V14.00,2013-05-04 18:47:00,
2013-05-04 14:52:00,60.8,49.0,28.85,SSW,194,0.0,0.0,65,0.00,,SKC,0.04,VWS V14.00,2013-05-04 18:52:00,
2013-05-04 14:57:00,61.0,49.2,28.85,SW,230,0.0,0.0,65,0.00,,SKC,0.04,VWS V14.00,2013-05-04 18:57:00,
2013-05-04 15:02:00,60.6,49.2,28.85,NE,47,0.0,0.0,66,0.00,,SKC,0.04,VWS V14.00,2013-05-04 19:02:00,
2013-05-04 15:07:00,60.3,48.9,28.85,NE,46,0.0,0.0,66,0.00,,SKC,0.04,VWS V14.00,2013-05-04 19:07:00,
2013-05-04 15:12:00,59.9,48.9,28.85,NE,46,0.0,0.0,67,0.00,,SKC,0.04,VWS V14.00,2013-05-04 19:12:00,
2013-05-04 15:17:00,59.5,48.6,28.85,NNE,31,0.0,0.0,67,0.00,,SKC,0.04,VWS V14.00,2013-05-04 19:17:00,
2013-05-04 15:22:00,59.5,48.6,28.85,NE,55,0.0,4.0,67,0.00,,SKC,0.04,VWS V14.00,2013-05-04 19:22:00,
2013-05-04 15:27:00,59.7,48.8,28.85,NE,54,0.0,4.0,67,0.00,,SKC,0.04,VWS V14.00,2013-05-04 19:27:00,
2013-05-04 15:32:00,60.1,49.5,28.85,NE,54,0.0,0.0,68,0.00,,SKC,0.04,VWS V14.00,2013-05-04 19:32:00,
2013-05-04 15:37:00,60.3,49.7,28.85,SSW,213,0.0,0.0,68,0.00,,SKC,0.04,VWS V14.00,2013-05-04 19:37:00,
2013-05-04 15:42:00,60.4,49.8,28.85,SSW,213,0.0,0.0,68,0.00,,SKC,0.04,VWS V14.00,2013-05-04 19:42:00,
2013-05-04 15:47:00,60.3,49.7,28.85,ENE,58,0.0,0.0,68,0.00,,SKC,0.04,VWS V14.00,2013-05-04 19:47:00,
2013-05-04 15:52:00,60.1,49.5,28.85,ENE,58,0.0,0.0,68,0.00,,SKC,0.04,VWS V14.00,2013-05-04 19:52:00,
2013-05-04 15:57:00,59.9,49.3,28.85,ENE,58,0.0,0.0,68,0.04,,SKC,0.08,VWS V14.00,2013-05-04 19:57:00,
2013-05-04 16:02:00,59.5,49.0,28.85,ENE,58,0.0,0.0,68,0.04,,SKC,0.08,VWS V14.00,2013-05-04 20:02:00,
2013-05-04 16:07:00,59.5,49.0,28.85,ENE,58,0.0,0.0,68,0.08,,SKC,0.12,VWS V14.00,2013-05-04 20:07:00,
2013-05-04 16:12:00,59.4,49.2,28.85,ENE,58,0.0,0.0,69,0.08,,SKC,0.12,VWS V14.00,2013-05-04 20:12:00,
2013-05-04 16:17:00,59.5,49.4,28.85,ENE,58,0.0,0.0,69,0.12,,SKC,0.16,VWS V14.00,2013-05-04 20:17:00,
2013-05-04 16:23:00,59.4,49.2,28.88,ENE,58,0.0,0.0,69,0.12,,SKC,0.16,VWS V14.00,2013-05-04 20:23:00,
2013-05-04 16:28:00,59.2,49.0,28.88,ENE,58,0.0,0.0,69,0.16,,SKC,0.20,VWS V14.00,2013-05-04 20:28:00,
2013-05-04 16:33:00,59.0,48.9,28.88,ENE,58,0.0,0.0,69,0.16,,SKC,0.20,VWS V14.00,2013-05-04 20:33:00,
2013-05-04 16:38:00,59.0,49.2,28.88,ENE,58,0.0,0.0,70,0.16,,SKC,0.20,VWS V14.00,2013-05-04 20:38:00,
2013-05-04 16:43:00,58.8,49.1,28.88,ENE,58,0.0,0.0,70,0.20,,SKC,0.24,VWS V14.00,2013-05-04 20:43:00,
2013-05-04 16:48:00,58.5,49.1,28.85,ENE,58,0.0,0.0,71,0.24,,SKC,0.28,VWS V14.00,2013-05-04 20:48:00,
2013-05-04 16:53:00,58.1,48.8,28.85,East,100,0.0,0.0,71,0.24,,SKC,0.28,VWS V14.00,2013-05-04 20:53:00,
2013-05-04 16:58:00,58.3,49.3,28.85,East,100,0.0,0.0,72,0.24,,SKC,0.28,VWS V14.00,2013-05-04 20:58:00,
2013-05-04 17:03:00,58.6,49.7,28.85,East,90,0.0,0.0,72,0.24,,SKC,0.32,VWS V14.00,2013-05-04 21:03:00,
2013-05-04 17:08:00,58.8,49.8,28.85,East,92,0.0,0.0,72,0.24,,SKC,0.32,VWS V14.00,2013-05-04 21:08:00,
2013-05-04 17:13:00,59.0,50.0,28.85,East,82,0.0,0.0,72,0.20,,SKC,0.32,VWS V14.00,2013-05-04 21:13:00,
2013-05-04 17:18:00,58.8,49.8,28.85,East,82,0.0,0.0,72,0.20,,SKC,0.32,VWS V14.00,2013-05-04 21:18:00,
2013-05-04 17:23:00,59.0,50.0,28.85,East,82,0.0,0.0,72,0.16,,SKC,0.32,VWS V14.00,2013-05-04 21:23:00,
2013-05-04 17:28:00,59.2,50.5,28.85,East,82,0.0,0.0,73,0.16,,SKC,0.32,VWS V14.00,2013-05-04 21:28:00,
2013-05-04 17:33:00,59.0,50.4,28.85,East,82,0.0,0.0,73,0.12,,SKC,0.32,VWS V14.00,2013-05-04 21:33:00,
2013-05-04 17:38:00,59.0,50.4,28.85,East,82,0.0,0.0,73,0.12,,SKC,0.32,VWS V14.00,2013-05-04 21:38:00,
2013-05-04 17:43:00,58.8,50.2,28.85,East,82,0.0,0.0,73,0.08,,SKC,0.32,VWS V14.00,2013-05-04 21:43:00,
2013-05-04 17:48:00,58.8,50.2,28.85,East,82,0.0,0.0,73,0.08,,SKC,0.32,VWS V14.00,2013-05-04 21:48:00,
2013-05-04 17:53:00,58.8,50.6,28.85,East,82,0.0,0.0,74,0.04,,SKC,0.32,VWS V14.00,2013-05-04 21:53:00,
2013-05-04 17:58:00,58.6,50.4,28.85,East,82,0.0,0.0,74,0.04,,SKC,0.32,VWS V14.00,2013-05-04 21:58:00,
2013-05-04 18:03:00,58.6,50.4,28.85,East,82,0.0,0.0,74,0.00,,SKC,0.32,VWS V14.00,2013-05-04 22:03:00,
2013-05-04 18:08:00,58.6,50.4,28.85,East,82,0.0,0.0,74,0.04,,SKC,0.36,VWS V14.00,2013-05-04 22:08:00,
2013-05-04 18:13:00,58.5,50.2,28.85,East,82,0.0,0.0,74,0.04,,SKC,0.36,VWS V14.00,2013-05-04 22:13:00,
2013-05-04 18:18:00,58.5,50.2,28.88,East,82,0.0,0.0,74,0.04,,SKC,0.36,VWS V14.00,2013-05-04 22:18:00,
2013-05-04 18:23:00,58.5,50.2,28.88,East,82,0.0,0.0,74,0.04,,SKC,0.36,VWS V14.00,2013-05-04 22:23:00,
2013-05-04 18:28:00,58.3,50.0,28.88,East,82,0.0,0.0,74,0.04,,SKC,0.36,VWS V14.00,2013-05-04 22:28:00,
2013-05-04 18:33:00,58.3,50.0,28.88,East,82,0.0,0.0,74,0.04,,SKC,0.36,VWS V14.00,2013-05-04 22:33:00,
2013-05-04 18:38:00,58.1,49.9,28.88,East,82,0.0,0.0,74,0.08,,SKC,0.40,VWS V14.00,2013-05-04 22:38:00,
2013-05-04 18:43:00,57.9,49.7,28.88,East,82,0.0,0.0,74,0.08,,SKC,0.40,VWS V14.00,2013-05-04 22:43:00,
2013-05-04 18:48:00,57.7,49.5,28.85,East,82,0.0,0.0,74,0.12,,SKC,0.44,VWS V14.00,2013-05-04 22:48:00,
2013-05-04 18:53:00,57.6,49.3,28.85,East,82,0.0,0.0,74,0.12,,SKC,0.44,VWS V14.00,2013-05-04 22:53:00,
2013-05-04 18:58:00,57.4,49.5,28.85,East,82,0.0,0.0,75,0.12,,SKC,0.44,VWS V14.00,2013-05-04 22:58:00,
2013-05-04 19:03:00,57.2,49.4,28.85,East,84,0.0,2.7,75,0.16,,SKC,0.48,VWS V14.00,2013-05-04 23:03:00,
2013-05-04 19:08:00,57.0,49.5,28.85,ENE,59,0.0,3.6,76,0.16,,SKC,0.48,VWS V14.00,2013-05-04 23:08:00,
2013-05-04 19:13:00,57.2,49.7,28.85,ENE,59,0.0,0.0,76,0.12,,SKC,0.48,VWS V14.00,2013-05-04 23:13:00,
2013-05-04 19:18:00,57.0,49.5,28.88,ENE,59,0.0,0.0,76,0.12,,SKC,0.48,VWS V14.00,2013-05-04 23:18:00,
2013-05-04 19:23:00,56.8,49.4,28.88,ENE,59,0.0,0.0,76,0.16,,SKC,0.52,VWS V14.00,2013-05-04 23:23:00,
2013-05-04 19:28:00,56.7,49.2,28.88,NE,48,0.0,0.0,76,0.16,,SKC,0.52,VWS V14.00,2013-05-04 23:28:00,
2013-05-04 19:33:00,56.5,49.4,28.85,NNE,27,0.0,0.0,77,0.20,,SKC,0.56,VWS V14.00,2013-05-04 23:33:00,
2013-05-04 19:38:00,56.3,49.2,28.85,NNE,19,0.0,0.0,77,0.20,,SKC,0.56,VWS V14.00,2013-05-04 23:38:00,
2013-05-04 19:43:00,56.3,49.2,28.85,NNE,19,0.0,0.0,77,0.16,,SKC,0.56,VWS V14.00,2013-05-04 23:43:00,
2013-05-04 19:48:00,56.3,49.2,28.85,NNE,19,0.0,0.0,77,0.16,,SKC,0.56,VWS V14.00,2013-05-04 23:48:00,
2013-05-04 19:53:00,56.3,49.5,28.85,NNE,19,0.0,0.0,78,0.12,,SKC,0.56,VWS V14.00,2013-05-04 23:53:00,
2013-05-04 19:58:00,56.5,49.7,28.85,NNE,19,0.0,0.0,78,0.12,,SKC,0.56,VWS V14.00,2013-05-04 23:58:00,
2013-05-04 20:03:00,56.5,49.7,28.88,NNE,13,0.0,0.0,78,0.12,,SKC,0.56,VWS V14.00,2013-05-05 00:03:00,
2013-05-04 20:08:00,56.3,49.5,28.88,NE,34,0.0,2.2,78,0.12,,SKC,0.56,VWS V14.00,2013-05-05 00:08:00,
2013-05-04 20:13:00,56.3,49.5,28.88,NNE,32,0.0,0.0,78,0.08,,SKC,0.56,VWS V14.00,2013-05-05 00:13:00,
2013-05-04 20:18:00,56.1,49.4,28.88,NNE,28,0.0,4.0,78,0.08,,SKC,0.56,VWS V14.00,2013-05-05 00:18:00,
2013-05-04 20:23:00,56.1,49.4,28.88,NNE,13,0.0,0.0,78,0.08,,SKC,0.56,VWS V14.00,2013-05-05 00:23:00,
2013-05-04 20:28:00,55.9,49.2,28.88,NNE,13,0.0,0.0,78,0.08,,SKC,0.56,VWS V14.00,2013-05-05 00:28:00,
2013-05-04 20:33:00,55.9,49.5,28.88,NNE,13,0.0,0.0,79,0.04,,SKC,0.56,VWS V14.00,2013-05-05 00:33:00,
2013-05-04 20:38:00,55.9,49.5,28.88,NNE,13,0.0,0.0,79,0.12,,SKC,0.64,VWS V14.00,2013-05-05 00:38:00,
2013-05-04 20:43:00,55.9,49.5,28.88,NE,41,4.8,4.8,79,0.08,,SKC,0.64,VWS V14.00,2013-05-05 00:43:00,
2013-05-04 20:48:00,55.8,49.4,28.85,NNE,23,0.0,4.0,79,0.12,,SKC,0.68,VWS V14.00,2013-05-05 00:48:00,
2013-05-04 20:53:00,55.8,49.4,28.85,NE,35,0.0,3.1,79,0.12,,SKC,0.68,VWS V14.00,2013-05-05 00:53:00,
2013-05-04 20:58:00,55.6,49.2,28.85,NNE,31,0.0,3.1,79,0.12,,SKC,0.68,VWS V14.00,2013-05-05 00:58:00,
2013-05-04 21:03:00,55.6,49.2,28.85,NE,38,0.0,3.1,79,0.12,,SKC,0.68,VWS V14.00,2013-05-05 01:03:00,
2013-05-04 21:08:00,55.6,49.2,28.85,NNE,31,4.3,4.3,79,0.12,,SKC,0.68,VWS V14.00,2013-05-05 01:08:00,
2013-05-04 21:13:00,55.4,49.3,28.85,NNE,30,0.0,0.0,80,0.16,,SKC,0.72,VWS V14.00,2013-05-05 01:13:00,
2013-05-04 21:18:00,55.4,49.3,28.85,NNE,25,0.0,0.0,80,0.16,,SKC,0.72,VWS V14.00,2013-05-05 01:18:00,
2013-05-04 21:23:00,55.4,49.3,28.85,NNE,25,0.0,0.0,80,0.16,,SKC,0.72,VWS V14.00,2013-05-05 01:23:00,
2013-05-04 21:28:00,55.2,49.2,28.85,NNE,30,0.0,0.0,80,0.16,,SKC,0.72,VWS V14.00,2013-05-05 01:28:00,
2013-05-04 21:33:00,55.2,49.2,28.88,NE,38,0.0,3.1,80,0.16,,SKC,0.72,VWS V14.00,2013-05-05 01:33:00,
2013-05-04 21:38:00,55.0,49.3,28.88,North,5,0.0,3.1,81,0.16,,SKC,0.72,VWS V14.00,2013-05-05 01:38:00,
2013-05-04 21:44:00,55.0,49.3,28.88,NNE,28,0.0,0.0,81,0.08,,SKC,0.72,VWS V14.00,2013-05-05 01:44:00,
2013-05-04 21:49:00,54.9,49.2,28.88,NNE,33,3.2,3.6,81,0.08,,SKC,0.72,VWS V14.00,2013-05-05 01:49:00,
2013-05-04 21:54:00,54.9,49.2,28.85,NNE,15,0.0,3.1,81,0.04,,SKC,0.72,VWS V14.00,2013-05-05 01:54:00,
2013-05-04 21:59:00,54.9,49.2,28.85,NNE,26,0.0,3.1,81,0.04,,SKC,0.72,VWS V14.00,2013-05-05 01:59:00,
2013-05-04 22:04:00,54.7,49.0,28.88,NNE,27,0.0,0.0,81,0.04,,SKC,0.72,VWS V14.00,2013-05-05 02:04:00,
2013-05-04 22:09:00,54.7,49.0,28.88,NNE,27,0.0,0.0,81,0.04,,SKC,0.72,VWS V14.00,2013-05-05 02:09:00,
2013-05-04 22:14:00,54.7,49.0,28.88,North,6,0.0,0.0,81,0.04,,SKC,0.72,VWS V14.00,2013-05-05 02:14:00,
2013-05-04 22:19:00,54.7,49.0,28.85,NNE,24,0.0,2.2,81,0.04,,SKC,0.72,VWS V14.00,2013-05-05 02:19:00,
2013-05-04 22:24:00,54.7,49.0,28.85,NE,39,0.0,0.0,81,0.04,,SKC,0.76,VWS V14.00,2013-05-05 02:24:00,
2013-05-04 22:29:00,54.7,49.0,28.85,NE,39,0.0,0.0,81,0.04,,SKC,0.76,VWS V14.00,2013-05-05 02:29:00,
2013-05-04 22:34:00,54.7,49.3,28.85,NE,38,0.0,3.1,82,0.04,,SKC,0.76,VWS V14.00,2013-05-05 02:34:00,
2013-05-04 22:39:00,54.7,49.3,28.85,NE,46,0.0,4.9,82,0.04,,SKC,0.76,VWS V14.00,2013-05-05 02:39:00,
2013-05-04 22:44:00,54.7,49.3,28.85,NE,46,0.0,0.0,82,0.04,,SKC,0.76,VWS V14.00,2013-05-05 02:44:00,
2013-05-04 22:49:00,54.7,49.3,28.85,NNE,23,0.0,0.0,82,0.04,,SKC,0.76,VWS V14.00,2013-05-05 02:49:00,
2013-05-04 22:54:00,54.7,49.3,28.85,NNE,20,0.0,2.2,82,0.04,,SKC,0.76,VWS V14.00,2013-05-05 02:54:00,
2013-05-04 22:59:00,54.7,49.3,28.85,NNE,20,0.0,6.3,82,0.04,,SKC,0.76,VWS V14.00,2013-05-05 02:59:00,
2013-05-04 23:04:00,54.7,49.3,28.85,SW,229,0.0,2.2,82,0.04,,SKC,0.76,VWS V14.00,2013-05-05 03:04:00,
2013-05-04 23:09:00,54.7,49.3,28.85,NE,35,0.0,3.6,82,0.04,,SKC,0.76,VWS V14.00,2013-05-05 03:09:00,
2013-05-04 23:14:00,54.5,49.1,28.85,NNE,16,0.0,0.0,82,0.04,,SKC,0.76,VWS V14.00,2013-05-05 03:14:00,
2013-05-04 23:19:00,54.5,49.1,28.85,NE,52,0.0,2.7,82,0.04,,SKC,0.76,VWS V14.00,2013-05-05 03:19:00,
2013-05-04 23:24:00,54.7,49.3,28.85,NE,48,0.0,0.0,82,0.00,,SKC,0.76,VWS V14.00,2013-05-05 03:24:00,
2013-05-04 23:29:00,54.7,49.6,28.85,NNE,31,0.0,0.0,83,0.00,,SKC,0.76,VWS V14.00,2013-05-05 03:29:00,
2013-05-04 23:34:00,54.7,49.6,28.85,NNE,31,0.0,0.0,83,0.00,,SKC,0.76,VWS V14.00,2013-05-05 03:34:00,
2013-05-04 23:39:00,54.7,49.6,28.85,NNE,31,0.0,0.0,83,0.00,,SKC,0.76,VWS V14.00,2013-05-05 03:39:00,
2013-05-04 23:44:00,54.7,49.6,28.85,NE,42,0.0,2.7,83,0.00,,SKC,0.76,VWS V14.00,2013-05-05 03:44:00,
2013-05-04 23:49:00,54.7,49.6,28.82,NE,42,0.0,2.7,83,0.00,,SKC,0.76,VWS V14.00,2013-05-05 03:49:00,
2013-05-04 23:54:00,54.5,49.5,28.82,NE,34,0.0,3.1,83,0.00,,SKC,0.76,VWS V14.00,2013-05-05 03:54:00,
2013-05-04 23:59:00,54.5,49.5,28.82,NNE,31,0.0,3.1,83,0.00,,SKC,0.76,VWS V14.00,2013-05-05 03:59:00,